{"data":{"norad_id":68787,"intl_designator":"2026-086X","name":"STARLINK-37292","alt_names":[],"object_type":"PAYLOAD","status":"ACTIVE","operator":null,"country":"US","launch_date":"2026-04-19","launch_site_code":"AFWTR","launch_vehicle":null,"mission":null,"orbit_class":"UNKNOWN","rcs_meters":null,"size_class":null,"mass_kg":null,"dimensions":null,"purposes":["comms"],"wikipedia_slug":null,"has_3d_model":false,"image_url":null,"decayed_at":null,"tle_current":{"epoch":"2026-09-20T01:36:53.543232Z","epoch_age_seconds":77401,"freshness":"FRESH","line1":"1 68787U 26086X   26263.06728638  .00011259  00000+0  35051-3 0  9991","line2":"2 68787  97.2857 298.5769 0000494  75.0189 285.1108 15.33449075 23628","mean_motion":15.33449075,"eccentricity":4.94e-5,"inclination_deg":97.2857,"raan_deg":298.5769,"arg_perigee_deg":75.0189,"mean_anomaly_deg":285.1108,"bstar":0.00035051,"rev_number":2362,"period_min":93.905955109725,"perigee_km":465.19297297031,"apogee_km":465.86912737366,"semimajor_km":6843.668050172,"source":"CELESTRAK","updated_at":"2026-09-20T09:00:44.003654Z"}}}